Year,Month,Day,Hour,Minute,Value (Times are PST for windspeed in km/hr)
2015,12,11,00,00,5.20
2015,12,11,00,01,4.70
2015,12,11,00,02,4.90
2015,12,11,00,03,3.40
2015,12,11,00,04,3.40
2015,12,11,00,05,5.60
2015,12,11,00,06,5.80
2015,12,11,00,07,4.10
2015,12,11,00,08,2.80
2015,12,11,00,09,3.90
2015,12,11,00,10,3.60
2015,12,11,00,11,3.30
2015,12,11,00,12,4.40
2015,12,11,00,13,5.00
2015,12,11,00,14,5.70
2015,12,11,00,15,5.40
2015,12,11,00,16,5.40
2015,12,11,00,17,5.40
2015,12,11,00,18,5.40
2015,12,11,00,19,4.80
2015,12,11,00,20,5.60
2015,12,11,00,21,4.20
2015,12,11,00,22,5.00
2015,12,11,00,23,4.50
2015,12,11,00,24,4.70
2015,12,11,00,25,4.50
2015,12,11,00,26,4.20
2015,12,11,00,27,4.60
2015,12,11,00,28,4.40
2015,12,11,00,29,5.50
2015,12,11,00,30,5.70
2015,12,11,00,31,5.60
2015,12,11,00,32,5.80
2015,12,11,00,33,5.30
2015,12,11,00,34,5.50
2015,12,11,00,35,5.70
2015,12,11,00,36,5.40
2015,12,11,00,37,5.50
2015,12,11,00,38,6.40
2015,12,11,00,39,5.90
2015,12,11,00,40,6.00
2015,12,11,00,41,6.10
2015,12,11,00,42,6.50
2015,12,11,00,43,5.50
2015,12,11,00,44,5.90
2015,12,11,00,45,5.50
2015,12,11,00,46,6.60
2015,12,11,00,47,6.50
2015,12,11,00,48,5.80
2015,12,11,00,49,5.80
2015,12,11,00,50,5.00
2015,12,11,00,51,4.40
2015,12,11,00,52,3.10
2015,12,11,00,53,3.20
2015,12,11,00,54,3.60
2015,12,11,00,55,4.10
2015,12,11,00,56,5.70
2015,12,11,00,57,5.70
2015,12,11,00,58,6.20
2015,12,11,00,59,5.60
2015,12,11,01,00,6.10
2015,12,11,01,01,5.30
2015,12,11,01,02,5.00
2015,12,11,01,03,5.20
2015,12,11,01,04,5.80
2015,12,11,01,05,5.70
2015,12,11,01,06,6.00
2015,12,11,01,07,5.30
2015,12,11,01,08,5.50
2015,12,11,01,09,5.70
2015,12,11,01,10,6.80
2015,12,11,01,11,6.70
2015,12,11,01,12,7.20
2015,12,11,01,13,7.10
2015,12,11,01,14,6.80
2015,12,11,01,15,6.50
2015,12,11,01,16,5.90
2015,12,11,01,17,5.30
2015,12,11,01,18,5.90
2015,12,11,01,19,6.10
2015,12,11,01,20,6.50
2015,12,11,01,21,6.70
2015,12,11,01,22,7.30
2015,12,11,01,23,6.90
2015,12,11,01,24,6.20
2015,12,11,01,25,7.20
2015,12,11,01,26,6.30
2015,12,11,01,27,6.40
2015,12,11,01,28,7.30
2015,12,11,01,29,7.60
2015,12,11,01,30,8.10
2015,12,11,01,31,7.60
2015,12,11,01,32,7.50
2015,12,11,01,33,6.80
2015,12,11,01,34,6.40
2015,12,11,01,35,6.60
2015,12,11,01,36,6.80
2015,12,11,01,37,5.60
2015,12,11,01,38,6.50
2015,12,11,01,39,5.30
2015,12,11,01,40,6.10
2015,12,11,01,41,5.60
2015,12,11,01,42,6.40
2015,12,11,01,43,6.90
2015,12,11,01,44,7.00
2015,12,11,01,45,7.00
2015,12,11,01,46,6.90
2015,12,11,01,47,7.50
2015,12,11,01,48,6.50
2015,12,11,01,49,6.20
2015,12,11,01,50,5.90
2015,12,11,01,51,5.30
2015,12,11,01,52,5.60
2015,12,11,01,53,5.00
2015,12,11,01,54,5.00
2015,12,11,01,55,6.10
2015,12,11,01,56,6.80
2015,12,11,01,57,6.70
2015,12,11,01,58,7.00
2015,12,11,01,59,7.00
2015,12,11,02,00,5.90
2015,12,11,02,01,5.50
2015,12,11,02,02,5.50
2015,12,11,02,03,5.00
2015,12,11,02,04,5.00
2015,12,11,02,05,5.20
2015,12,11,02,06,5.30
2015,12,11,02,07,5.40
2015,12,11,02,08,5.40
2015,12,11,02,09,5.30
2015,12,11,02,10,5.60
2015,12,11,02,11,5.70
2015,12,11,02,12,6.00
2015,12,11,02,13,5.70
2015,12,11,02,14,5.20
2015,12,11,02,15,3.00
2015,12,11,02,16,4.20
2015,12,11,02,17,3.70
2015,12,11,02,18,4.50
2015,12,11,02,19,6.40
2015,12,11,02,20,6.40
2015,12,11,02,21,6.40
2015,12,11,02,22,5.50
2015,12,11,02,23,6.00
2015,12,11,02,24,6.50
2015,12,11,02,25,6.00
2015,12,11,02,26,6.70
2015,12,11,02,27,7.60
2015,12,11,02,28,7.40
2015,12,11,02,29,6.10
2015,12,11,02,30,5.50
2015,12,11,02,31,4.50
2015,12,11,02,32,4.30
2015,12,11,02,33,4.20
2015,12,11,02,34,4.70
2015,12,11,02,35,4.80
2015,12,11,02,36,4.60
2015,12,11,02,37,5.00
2015,12,11,02,38,5.70
2015,12,11,02,39,6.10
2015,12,11,02,40,5.60
2015,12,11,02,41,6.30
2015,12,11,02,42,5.60
2015,12,11,02,43,5.20
2015,12,11,02,44,4.70
2015,12,11,02,45,4.00
2015,12,11,02,46,3.70
2015,12,11,02,47,4.20
2015,12,11,02,48,3.90
2015,12,11,02,49,4.20
2015,12,11,02,50,3.60
2015,12,11,02,51,3.10
2015,12,11,02,52,3.10
2015,12,11,02,53,4.20
2015,12,11,02,54,3.90
2015,12,11,02,55,4.80
2015,12,11,02,56,4.50
2015,12,11,02,57,3.60
2015,12,11,02,58,2.90
2015,12,11,02,59,1.80
2015,12,11,03,00,1.90
2015,12,11,03,01,1.20
2015,12,11,03,02,1.00
2015,12,11,03,03,2.30
2015,12,11,03,04,3.30
2015,12,11,03,05,4.20
2015,12,11,03,06,4.60
2015,12,11,03,07,5.10
2015,12,11,03,08,4.40
2015,12,11,03,09,4.00
2015,12,11,03,10,3.60
2015,12,11,03,11,3.60
2015,12,11,03,12,4.70
2015,12,11,03,13,4.40
2015,12,11,03,14,4.70
2015,12,11,03,15,5.50
2015,12,11,03,16,5.10
2015,12,11,03,17,5.00
2015,12,11,03,18,4.50
2015,12,11,03,19,4.50
2015,12,11,03,20,4.20
2015,12,11,03,21,4.60
2015,12,11,03,22,5.80
2015,12,11,03,23,5.50
2015,12,11,03,24,6.30
2015,12,11,03,25,5.60
2015,12,11,03,26,5.20
2015,12,11,03,27,5.10
2015,12,11,03,28,4.80
2015,12,11,03,29,4.80
2015,12,11,03,30,4.50
2015,12,11,03,31,4.70
2015,12,11,03,32,5.70
2015,12,11,03,33,6.10
2015,12,11,03,34,4.80
2015,12,11,03,35,5.20
2015,12,11,03,36,5.60
2015,12,11,03,37,5.00
2015,12,11,03,38,6.00
2015,12,11,03,39,4.60
2015,12,11,03,40,4.00
2015,12,11,03,41,4.50
2015,12,11,03,42,4.40
2015,12,11,03,43,5.60
2015,12,11,03,44,6.20
2015,12,11,03,45,7.00
2015,12,11,03,46,6.60
2015,12,11,03,47,6.10
2015,12,11,03,48,6.00
2015,12,11,03,49,6.00
2015,12,11,03,50,5.00
2015,12,11,03,51,5.30
2015,12,11,03,52,5.00
2015,12,11,03,53,5.90
2015,12,11,03,54,5.90
2015,12,11,03,55,7.50
2015,12,11,03,56,7.10
2015,12,11,03,57,6.70
2015,12,11,03,58,7.60
2015,12,11,03,59,7.50
2015,12,11,04,00,6.30
2015,12,11,04,01,7.30
2015,12,11,04,02,7.40
2015,12,11,04,03,6.70
2015,12,11,04,04,7.10
2015,12,11,04,05,5.50
2015,12,11,04,06,5.50
2015,12,11,04,07,5.80
2015,12,11,04,08,8.30
2015,12,11,04,09,5.90
2015,12,11,04,10,5.10
2015,12,11,04,11,6.10
2015,12,11,04,12,6.00
2015,12,11,04,13,5.00
2015,12,11,04,14,7.60
2015,12,11,04,15,7.40
2015,12,11,04,16,7.70
2015,12,11,04,17,6.70
2015,12,11,04,18,8.20
2015,12,11,04,19,7.70
2015,12,11,04,20,8.30
2015,12,11,04,21,7.50
2015,12,11,04,22,7.00
2015,12,11,04,23,7.00
2015,12,11,04,24,5.30
2015,12,11,04,25,5.10
2015,12,11,04,26,5.90
2015,12,11,04,27,5.10
2015,12,11,04,28,6.00
2015,12,11,04,29,5.40
2015,12,11,04,30,5.00
2015,12,11,04,31,5.40
2015,12,11,04,32,5.30
2015,12,11,04,33,6.40
2015,12,11,04,34,5.30
2015,12,11,04,35,6.20
2015,12,11,04,36,7.90
2015,12,11,04,37,7.20
2015,12,11,04,38,7.00
2015,12,11,04,39,7.00
2015,12,11,04,40,6.60
2015,12,11,04,41,6.70
2015,12,11,04,42,6.00
2015,12,11,04,43,5.10
2015,12,11,04,44,5.30
2015,12,11,04,45,4.90
2015,12,11,04,46,4.60
2015,12,11,04,47,4.70
2015,12,11,04,48,5.90
2015,12,11,04,49,6.00
2015,12,11,04,50,6.30
2015,12,11,04,51,6.00
2015,12,11,04,52,6.10
2015,12,11,04,53,5.80
2015,12,11,04,54,5.80
2015,12,11,04,55,4.60
2015,12,11,04,56,5.00
2015,12,11,04,57,4.80
2015,12,11,04,58,3.90
2015,12,11,04,59,4.50
2015,12,11,05,00,4.60
2015,12,11,05,01,4.20
2015,12,11,05,02,5.70
2015,12,11,05,03,5.60
2015,12,11,05,04,6.50
2015,12,11,05,05,7.00
2015,12,11,05,06,6.10
2015,12,11,05,07,5.60
2015,12,11,05,08,6.50
2015,12,11,05,09,6.50
2015,12,11,05,10,6.40
2015,12,11,05,11,5.00
2015,12,11,05,12,5.50
2015,12,11,05,13,5.80
2015,12,11,05,14,5.60
2015,12,11,05,15,5.60
2015,12,11,05,16,5.70
2015,12,11,05,17,5.00
2015,12,11,05,18,4.70
2015,12,11,05,19,7.00
2015,12,11,05,20,6.20
2015,12,11,05,21,5.60
2015,12,11,05,22,6.10
2015,12,11,05,23,5.60
2015,12,11,05,24,5.60
2015,12,11,05,25,5.40
2015,12,11,05,26,5.80
2015,12,11,05,27,7.20
2015,12,11,05,28,6.90
2015,12,11,05,29,6.40
2015,12,11,05,30,6.50
2015,12,11,05,31,6.50
2015,12,11,05,32,4.10
2015,12,11,05,33,4.60
2015,12,11,05,34,3.60
2015,12,11,05,35,3.80
2015,12,11,05,36,5.00
2015,12,11,05,37,5.10
2015,12,11,05,38,4.80
2015,12,11,05,39,4.20
2015,12,11,05,40,3.00
2015,12,11,05,41,2.90
2015,12,11,05,42,3.20
2015,12,11,05,43,4.00
2015,12,11,05,44,5.30
2015,12,11,05,45,5.10
2015,12,11,05,46,5.00
2015,12,11,05,47,5.30
2015,12,11,05,48,3.80
2015,12,11,05,49,4.20
2015,12,11,05,50,3.90
2015,12,11,05,51,3.70
2015,12,11,05,52,3.30
2015,12,11,05,53,2.90
2015,12,11,05,54,4.40
2015,12,11,05,55,4.70
2015,12,11,05,56,4.00
2015,12,11,05,57,4.80
2015,12,11,05,58,4.60
2015,12,11,05,59,4.60
2015,12,11,06,00,5.30
2015,12,11,06,01,6.20
2015,12,11,06,02,5.90
2015,12,11,06,03,4.20
2015,12,11,06,04,2.00
2015,12,11,06,05,2.60
2015,12,11,06,06,3.60
2015,12,11,06,07,4.50
2015,12,11,06,08,4.10
2015,12,11,06,09,3.40
2015,12,11,06,10,5.00
2015,12,11,06,11,4.70
2015,12,11,06,12,4.60
2015,12,11,06,13,3.90
2015,12,11,06,14,4.70
2015,12,11,06,15,4.80
2015,12,11,06,16,5.60
2015,12,11,06,17,4.50
2015,12,11,06,18,7.30
2015,12,11,06,19,6.70
2015,12,11,06,20,5.70
2015,12,11,06,21,4.70
2015,12,11,06,22,6.60
2015,12,11,06,23,6.10
2015,12,11,06,24,4.40
2015,12,11,06,25,3.50
2015,12,11,06,26,3.90
2015,12,11,06,27,3.40
2015,12,11,06,28,3.90
2015,12,11,06,29,4.20
2015,12,11,06,30,5.00
2015,12,11,06,31,4.60
2015,12,11,06,32,5.70
2015,12,11,06,33,5.00
2015,12,11,06,34,3.50
2015,12,11,06,35,4.50
2015,12,11,06,36,4.50
2015,12,11,06,37,4.70
2015,12,11,06,38,5.00
2015,12,11,06,39,2.90
2015,12,11,06,40,4.40
2015,12,11,06,41,4.20
2015,12,11,06,42,2.30
2015,12,11,06,43,0.90
2015,12,11,06,44,0.60
2015,12,11,06,45,1.00
2015,12,11,06,46,0.90
2015,12,11,06,47,0.50
2015,12,11,06,48,1.30
2015,12,11,06,49,1.50
2015,12,11,06,50,2.40
2015,12,11,06,51,2.10
2015,12,11,06,52,2.70
2015,12,11,06,53,2.20
2015,12,11,06,54,2.80
2015,12,11,06,55,2.60
2015,12,11,06,56,2.80
2015,12,11,06,57,2.80
2015,12,11,06,58,2.40
2015,12,11,06,59,2.70
2015,12,11,07,00,2.30
2015,12,11,07,01,3.20
2015,12,11,07,02,3.90
2015,12,11,07,03,4.00
2015,12,11,07,04,3.60
2015,12,11,07,05,3.70
2015,12,11,07,06,4.50
2015,12,11,07,07,4.10
2015,12,11,07,08,3.60
2015,12,11,07,09,2.90
2015,12,11,07,10,4.50
2015,12,11,07,11,4.80
2015,12,11,07,12,4.50
2015,12,11,07,13,4.00
2015,12,11,07,14,3.10
2015,12,11,07,15,3.10
2015,12,11,07,16,3.00
2015,12,11,07,17,3.60
2015,12,11,07,18,4.40
2015,12,11,07,19,3.60
2015,12,11,07,20,3.90
2015,12,11,07,21,4.30
2015,12,11,07,22,4.10
2015,12,11,07,23,4.20
2015,12,11,07,24,4.30
2015,12,11,07,25,3.80
2015,12,11,07,26,4.00
2015,12,11,07,27,3.90
2015,12,11,07,28,3.90
2015,12,11,07,29,3.40
2015,12,11,07,30,3.40
2015,12,11,07,31,3.10
2015,12,11,07,32,3.10
2015,12,11,07,33,3.50
2015,12,11,07,34,3.90
2015,12,11,07,35,4.00
2015,12,11,07,36,4.60
2015,12,11,07,37,4.90
2015,12,11,07,38,5.30
2015,12,11,07,39,4.30
2015,12,11,07,40,4.00
2015,12,11,07,41,4.60
2015,12,11,07,42,5.00
2015,12,11,07,43,5.40
2015,12,11,07,44,5.10
2015,12,11,07,45,5.10
2015,12,11,07,46,5.10
2015,12,11,07,47,5.50
2015,12,11,07,48,4.80
2015,12,11,07,49,5.80
2015,12,11,07,50,4.80
2015,12,11,07,51,4.30
2015,12,11,07,52,5.10
2015,12,11,07,53,4.60
2015,12,11,07,54,4.60
2015,12,11,07,55,4.60
2015,12,11,07,56,2.90
2015,12,11,07,57,2.90
2015,12,11,07,58,3.10
2015,12,11,07,59,2.80
2015,12,11,08,00,3.60
2015,12,11,08,01,3.70
2015,12,11,08,02,4.10
2015,12,11,08,03,4.80
2015,12,11,08,04,4.70
2015,12,11,08,05,3.20
2015,12,11,08,06,6.00
2015,12,11,08,07,5.20
2015,12,11,08,08,5.30
2015,12,11,08,09,5.60
2015,12,11,08,10,4.70
2015,12,11,08,11,3.90
2015,12,11,08,12,4.80
2015,12,11,08,13,5.80
2015,12,11,08,14,3.70
2015,12,11,08,15,3.10
2015,12,11,08,16,3.60
2015,12,11,08,17,6.70
2015,12,11,08,18,6.90
2015,12,11,08,19,4.50
2015,12,11,08,20,4.80
2015,12,11,08,21,6.40
2015,12,11,08,22,4.30
2015,12,11,08,23,4.70
2015,12,11,08,24,5.70
2015,12,11,08,25,4.20
2015,12,11,08,26,4.00
2015,12,11,08,27,4.50
2015,12,11,08,28,4.30
2015,12,11,08,29,6.20
2015,12,11,08,30,6.10
2015,12,11,08,31,4.20
2015,12,11,08,32,3.40
2015,12,11,08,33,3.80
2015,12,11,08,34,3.90
2015,12,11,08,35,5.10
2015,12,11,08,36,4.00
2015,12,11,08,37,4.30
2015,12,11,08,38,4.50
2015,12,11,08,39,3.60
2015,12,11,08,40,4.80
2015,12,11,08,41,3.10
2015,12,11,08,42,4.90
2015,12,11,08,43,5.20
2015,12,11,08,44,4.90
2015,12,11,08,45,5.60
2015,12,11,08,46,4.70
2015,12,11,08,47,4.50
2015,12,11,08,48,3.20
2015,12,11,08,49,3.80
2015,12,11,08,50,4.40
2015,12,11,08,51,5.00
2015,12,11,08,52,3.80
2015,12,11,08,53,4.10
2015,12,11,08,54,4.00
2015,12,11,08,55,4.80
2015,12,11,08,56,5.50
2015,12,11,08,57,4.60
2015,12,11,08,58,4.80
2015,12,11,08,59,4.80
2015,12,11,09,00,3.90
2015,12,11,09,01,4.20
2015,12,11,09,02,4.50
2015,12,11,09,03,5.30
2015,12,11,09,04,6.70
2015,12,11,09,05,6.40
2015,12,11,09,06,5.10
2015,12,11,09,07,5.00
2015,12,11,09,08,5.80
2015,12,11,09,09,4.30
2015,12,11,09,10,4.50
2015,12,11,09,11,5.30
2015,12,11,09,12,7.10
2015,12,11,09,13,8.00
2015,12,11,09,14,4.50
2015,12,11,09,15,5.00
2015,12,11,09,16,3.40
2015,12,11,09,17,4.20
2015,12,11,09,18,4.00
2015,12,11,09,19,5.40
2015,12,11,09,20,4.80
2015,12,11,09,21,5.00
2015,12,11,09,22,5.20
2015,12,11,09,23,5.90
2015,12,11,09,24,6.60
2015,12,11,09,25,4.90
2015,12,11,09,26,5.10
2015,12,11,09,27,5.60
2015,12,11,09,28,4.80
2015,12,11,09,29,3.40
2015,12,11,09,30,5.10
2015,12,11,09,31,6.30
2015,12,11,09,32,5.10
2015,12,11,09,33,6.10
2015,12,11,09,34,7.50
2015,12,11,09,35,7.00
2015,12,11,09,36,5.80
2015,12,11,09,37,8.20
2015,12,11,09,38,7.40
2015,12,11,09,39,7.10
2015,12,11,09,40,6.30
2015,12,11,09,41,5.40
2015,12,11,09,42,5.30
2015,12,11,09,43,6.40
2015,12,11,09,44,7.00
2015,12,11,09,45,4.40
2015,12,11,09,46,7.40
2015,12,11,09,47,4.10
2015,12,11,09,48,7.90
2015,12,11,09,49,8.70
2015,12,11,09,50,5.30
2015,12,11,09,51,6.00
2015,12,11,09,52,6.10
2015,12,11,09,53,6.70
2015,12,11,09,54,9.00
2015,12,11,09,55,7.40
2015,12,11,09,56,4.30
2015,12,11,09,57,5.10
2015,12,11,09,58,7.20
2015,12,11,09,59,11.00
2015,12,11,10,00,8.50
2015,12,11,10,01,6.00
2015,12,11,10,02,4.70
2015,12,11,10,03,1.70
2015,12,11,10,04,4.40
2015,12,11,10,05,8.40
2015,12,11,10,06,8.90
2015,12,11,10,07,7.80
2015,12,11,10,08,5.20
2015,12,11,10,09,6.30
2015,12,11,10,10,9.40
2015,12,11,10,11,3.90
2015,12,11,10,12,9.30
2015,12,11,10,13,6.70
2015,12,11,10,14,3.10
2015,12,11,10,15,5.30
2015,12,11,10,16,3.40
2015,12,11,10,17,6.00
2015,12,11,10,18,3.50
2015,12,11,10,19,2.90
2015,12,11,10,20,5.30
2015,12,11,10,21,6.10
2015,12,11,10,22,5.70
2015,12,11,10,23,5.10
2015,12,11,10,24,4.80
2015,12,11,10,25,4.10
2015,12,11,10,26,5.80
2015,12,11,10,27,4.70
2015,12,11,10,28,5.10
2015,12,11,10,29,5.30
2015,12,11,10,30,10.60
2015,12,11,10,31,7.50
2015,12,11,10,32,8.20
2015,12,11,10,33,6.40
2015,12,11,10,34,8.10
2015,12,11,10,35,7.80
2015,12,11,10,36,8.10
2015,12,11,10,37,7.00
2015,12,11,10,38,7.50
2015,12,11,10,39,6.70
2015,12,11,10,40,6.40
2015,12,11,10,41,7.10
2015,12,11,10,42,7.40
2015,12,11,10,43,6.70
2015,12,11,10,44,2.80
2015,12,11,10,45,3.90
2015,12,11,10,46,6.80
2015,12,11,10,47,6.90
2015,12,11,10,48,7.10
2015,12,11,10,49,7.80
2015,12,11,10,50,4.50
2015,12,11,10,51,4.60
2015,12,11,10,52,6.50
2015,12,11,10,53,4.90
2015,12,11,10,54,4.50
2015,12,11,10,55,8.10
2015,12,11,10,56,6.80
2015,12,11,10,57,6.50
2015,12,11,10,58,7.60
2015,12,11,10,59,4.80
2015,12,11,11,00,1.10
2015,12,11,11,01,3.20
2015,12,11,11,02,3.50
2015,12,11,11,03,4.20
2015,12,11,11,04,3.20
2015,12,11,11,05,4.00
2015,12,11,11,06,5.90
2015,12,11,11,07,4.30
2015,12,11,11,08,6.30
2015,12,11,11,09,6.10
2015,12,11,11,10,6.50
2015,12,11,11,11,5.80
2015,12,11,11,12,6.40
2015,12,11,11,13,6.80
2015,12,11,11,14,7.70
2015,12,11,11,15,5.30
2015,12,11,11,16,7.10
2015,12,11,11,17,5.60
2015,12,11,11,18,4.20
2015,12,11,11,19,6.10
2015,12,11,11,20,7.00
2015,12,11,11,21,5.90
2015,12,11,11,22,6.10
2015,12,11,11,23,6.50
2015,12,11,11,24,9.80
2015,12,11,11,25,6.80
2015,12,11,11,26,5.30
2015,12,11,11,27,6.30
2015,12,11,11,28,6.70
2015,12,11,11,29,10.40
2015,12,11,11,30,7.20
2015,12,11,11,31,8.00
2015,12,11,11,32,6.40
2015,12,11,11,33,6.40
2015,12,11,11,34,5.10
2015,12,11,11,35,5.10
2015,12,11,11,36,8.10
2015,12,11,11,37,5.30
2015,12,11,11,38,5.60
2015,12,11,11,39,6.20
2015,12,11,11,40,6.10
2015,12,11,11,41,5.00
2015,12,11,11,42,5.90
2015,12,11,11,43,5.00
2015,12,11,11,44,6.10
2015,12,11,11,45,6.10
2015,12,11,11,46,6.00
2015,12,11,11,47,5.90
2015,12,11,11,48,6.70
2015,12,11,11,49,5.00
2015,12,11,11,50,4.60
2015,12,11,11,51,6.60
2015,12,11,11,52,7.20
2015,12,11,11,53,7.00
2015,12,11,11,54,8.70
2015,12,11,11,55,9.10
2015,12,11,11,56,11.00
2015,12,11,11,57,10.40
2015,12,11,11,58,5.40
2015,12,11,11,59,6.30
2015,12,11,12,00,8.70
2015,12,11,12,01,11.00
2015,12,11,12,02,10.80
2015,12,11,12,03,9.80
2015,12,11,12,04,9.70
2015,12,11,12,05,10.90
2015,12,11,12,06,8.60
2015,12,11,12,07,8.90
2015,12,11,12,08,10.30
2015,12,11,12,09,12.70
2015,12,11,12,10,10.10
2015,12,11,12,11,10.40
2015,12,11,12,12,9.40
2015,12,11,12,13,10.90
2015,12,11,12,14,9.60
2015,12,11,12,15,10.20
2015,12,11,12,16,13.30
2015,12,11,12,17,10.20
2015,12,11,12,18,8.10
2015,12,11,12,19,6.50
2015,12,11,12,20,13.10
2015,12,11,12,21,9.10
2015,12,11,12,22,10.40
2015,12,11,12,23,9.40
2015,12,11,12,24,10.80
2015,12,11,12,25,9.80
2015,12,11,12,26,6.50
2015,12,11,12,27,8.30
2015,12,11,12,28,12.80
2015,12,11,12,29,9.40
2015,12,11,12,30,10.60
2015,12,11,12,31,8.10
2015,12,11,12,32,6.00
2015,12,11,12,33,7.20
2015,12,11,12,34,12.90
2015,12,11,12,35,11.70
2015,12,11,12,36,9.30
2015,12,11,12,37,7.20
2015,12,11,12,38,9.30
2015,12,11,12,39,10.10
2015,12,11,12,40,10.60
2015,12,11,12,41,12.30
2015,12,11,12,42,9.40
2015,12,11,12,43,11.00
2015,12,11,12,44,10.30
2015,12,11,12,45,11.10
2015,12,11,12,46,11.90
2015,12,11,12,47,6.60
2015,12,11,12,48,7.60
2015,12,11,12,49,7.70
2015,12,11,12,50,9.40
2015,12,11,12,51,9.40
2015,12,11,12,52,8.00
2015,12,11,12,53,8.80
2015,12,11,12,54,7.60
2015,12,11,12,55,5.80
2015,12,11,12,56,8.30
2015,12,11,12,57,7.30
2015,12,11,12,58,7.00
2015,12,11,12,59,6.00
2015,12,11,13,00,5.40
2015,12,11,13,01,5.10
2015,12,11,13,02,5.30
2015,12,11,13,03,3.10
2015,12,11,13,04,2.90
2015,12,11,13,05,5.40
2015,12,11,13,06,6.00
2015,12,11,13,07,6.90
2015,12,11,13,08,6.80
2015,12,11,13,09,9.00
2015,12,11,13,10,11.90
2015,12,11,13,11,8.80
2015,12,11,13,12,8.90
2015,12,11,13,13,7.90
2015,12,11,13,14,9.10
2015,12,11,13,15,8.50
2015,12,11,13,16,6.70
2015,12,11,13,17,8.50
2015,12,11,13,18,9.70
2015,12,11,13,19,8.70
2015,12,11,13,20,9.10
2015,12,11,13,21,9.30
2015,12,11,13,22,7.40
2015,12,11,13,23,9.30
2015,12,11,13,24,12.30
2015,12,11,13,25,10.50
2015,12,11,13,26,11.90
2015,12,11,13,27,11.50
2015,12,11,13,28,9.30
2015,12,11,13,29,8.50
2015,12,11,13,30,8.50
2015,12,11,13,31,10.70
2015,12,11,13,32,11.60
2015,12,11,13,33,8.50
2015,12,11,13,34,10.20
2015,12,11,13,35,10.30
2015,12,11,13,36,11.20
2015,12,11,13,37,9.20
2015,12,11,13,38,10.80
2015,12,11,13,39,8.80
2015,12,11,13,40,10.80
2015,12,11,13,41,8.70
2015,12,11,13,42,9.10
2015,12,11,13,43,7.50
2015,12,11,13,44,11.80
2015,12,11,13,45,12.40
2015,12,11,13,46,8.30
2015,12,11,13,47,12.10
2015,12,11,13,48,9.80
2015,12,11,13,49,5.90
2015,12,11,13,50,11.50
2015,12,11,13,51,9.80
2015,12,11,13,52,6.90
2015,12,11,13,53,9.00
2015,12,11,13,54,6.70
2015,12,11,13,55,6.30
2015,12,11,13,56,5.50
2015,12,11,13,57,9.20
2015,12,11,13,58,7.80
2015,12,11,13,59,8.90
2015,12,11,14,00,9.10
2015,12,11,14,01,7.20
2015,12,11,14,02,8.60
2015,12,11,14,03,7.20
2015,12,11,14,04,7.80
2015,12,11,14,05,7.50
2015,12,11,14,06,8.90
2015,12,11,14,07,7.50
2015,12,11,14,08,6.70
2015,12,11,14,09,7.60
2015,12,11,14,10,9.90
2015,12,11,14,11,10.00
2015,12,11,14,12,7.40
2015,12,11,14,13,5.60
2015,12,11,14,14,9.70
2015,12,11,14,15,8.00
2015,12,11,14,16,8.30
2015,12,11,14,17,6.40
2015,12,11,14,18,7.80
2015,12,11,14,19,5.90
2015,12,11,14,20,5.70
2015,12,11,14,21,5.30
2015,12,11,14,22,4.80
2015,12,11,14,23,5.90
2015,12,11,14,24,9.20
2015,12,11,14,25,10.80
2015,12,11,14,26,7.50
2015,12,11,14,27,5.60
2015,12,11,14,28,5.90
2015,12,11,14,29,3.80
2015,12,11,14,30,7.00
2015,12,11,14,31,7.20
2015,12,11,14,32,5.30
2015,12,11,14,33,4.80
2015,12,11,14,34,3.40
2015,12,11,14,35,5.90
2015,12,11,14,36,5.50
2015,12,11,14,37,6.70
2015,12,11,14,38,5.40
2015,12,11,14,39,8.10
2015,12,11,14,40,6.80
2015,12,11,14,41,7.00
2015,12,11,14,42,7.70
2015,12,11,14,43,8.90
2015,12,11,14,44,6.70
2015,12,11,14,45,9.70
2015,12,11,14,46,8.70
2015,12,11,14,47,10.70
2015,12,11,14,48,8.00
2015,12,11,14,49,11.20
2015,12,11,14,50,11.90
2015,12,11,14,51,9.50
2015,12,11,14,52,8.10
2015,12,11,14,53,7.40
2015,12,11,14,54,5.70
2015,12,11,14,55,8.30
2015,12,11,14,56,8.60
2015,12,11,14,57,8.60
2015,12,11,14,58,8.20
2015,12,11,14,59,6.70
2015,12,11,15,00,9.00
2015,12,11,15,01,8.30
2015,12,11,15,02,6.70
2015,12,11,15,03,6.40
2015,12,11,15,04,4.60
2015,12,11,15,05,6.40
2015,12,11,15,06,5.20
2015,12,11,15,07,5.40
2015,12,11,15,08,5.20
2015,12,11,15,09,4.20
2015,12,11,15,10,6.10
2015,12,11,15,11,6.20
2015,12,11,15,12,5.60
2015,12,11,15,13,6.20
2015,12,11,15,14,5.20
2015,12,11,15,15,5.70
2015,12,11,15,16,4.40
2015,12,11,15,17,6.90
2015,12,11,15,18,5.80
2015,12,11,15,19,5.40
2015,12,11,15,20,6.20
2015,12,11,15,21,6.10
2015,12,11,15,22,5.80
2015,12,11,15,23,6.30
2015,12,11,15,24,3.80
2015,12,11,15,25,3.60
2015,12,11,15,26,5.70
2015,12,11,15,27,6.70
2015,12,11,15,28,6.10
2015,12,11,15,29,5.70
2015,12,11,15,30,2.90
2015,12,11,15,31,5.00
2015,12,11,15,32,3.90
2015,12,11,15,33,2.50
2015,12,11,15,34,3.80
2015,12,11,15,35,2.80
2015,12,11,15,36,3.90
2015,12,11,15,37,4.00
2015,12,11,15,38,4.00
2015,12,11,15,39,3.40
2015,12,11,15,40,2.80
2015,12,11,15,41,4.10
2015,12,11,15,42,4.80
2015,12,11,15,43,8.10
2015,12,11,15,44,6.30
2015,12,11,15,45,6.10
2015,12,11,15,46,5.30
2015,12,11,15,47,6.80
2015,12,11,15,48,6.90
2015,12,11,15,49,3.70
2015,12,11,15,50,6.00
2015,12,11,15,51,7.00
2015,12,11,15,52,6.10
2015,12,11,15,53,5.70
2015,12,11,15,54,6.40
2015,12,11,15,55,6.50
2015,12,11,15,56,6.20
2015,12,11,15,57,7.20
2015,12,11,15,58,5.90
2015,12,11,15,59,7.10
2015,12,11,16,00,5.30
2015,12,11,16,01,5.60
2015,12,11,16,02,5.30
2015,12,11,16,03,8.00
2015,12,11,16,04,5.80
2015,12,11,16,05,5.70
2015,12,11,16,06,5.60
2015,12,11,16,07,5.30
2015,12,11,16,08,5.10
2015,12,11,16,09,4.90
2015,12,11,16,10,6.10
2015,12,11,16,11,6.40
2015,12,11,16,12,5.40
2015,12,11,16,13,5.30
2015,12,11,16,14,5.80
2015,12,11,16,15,5.50
2015,12,11,16,16,6.10
2015,12,11,16,17,6.10
2015,12,11,16,18,5.10
2015,12,11,16,19,4.70
2015,12,11,16,20,4.80
2015,12,11,16,21,4.70
2015,12,11,16,22,5.40
2015,12,11,16,23,5.10
2015,12,11,16,24,4.50
2015,12,11,16,25,4.50
2015,12,11,16,26,4.10
2015,12,11,16,27,3.60
2015,12,11,16,28,3.90
2015,12,11,16,29,3.60
2015,12,11,16,30,4.80
2015,12,11,16,31,4.40
2015,12,11,16,32,2.60
2015,12,11,16,33,2.10
2015,12,11,16,34,4.20
2015,12,11,16,35,4.20
2015,12,11,16,36,3.60
2015,12,11,16,37,2.90
2015,12,11,16,38,3.30
2015,12,11,16,39,2.90
2015,12,11,16,40,2.00
2015,12,11,16,41,1.60
2015,12,11,16,42,1.60
2015,12,11,16,43,1.20
2015,12,11,16,44,1.70
2015,12,11,16,45,0.60
2015,12,11,16,46,0.90
2015,12,11,16,47,1.90
2015,12,11,16,48,1.50
2015,12,11,16,49,1.40
2015,12,11,16,50,1.80
2015,12,11,16,51,1.30
2015,12,11,16,52,0.80
2015,12,11,16,53,0.90
2015,12,11,16,54,1.60
2015,12,11,16,55,1.20
2015,12,11,16,56,1.00
2015,12,11,16,57,1.30
2015,12,11,16,58,1.70
2015,12,11,16,59,2.20
2015,12,11,17,00,1.90
2015,12,11,17,01,1.90
2015,12,11,17,02,2.10
2015,12,11,17,03,1.40
2015,12,11,17,04,1.10
2015,12,11,17,05,0.70
2015,12,11,17,06,0.40
2015,12,11,17,07,0.20
2015,12,11,17,08,0.70
2015,12,11,17,09,0.20
2015,12,11,17,10,0.70
2015,12,11,17,11,0.00
2015,12,11,17,12,0.00
2015,12,11,17,13,0.00
2015,12,11,17,14,0.10
2015,12,11,17,15,0.00
2015,12,11,17,16,0.00
2015,12,11,17,17,0.30
2015,12,11,17,18,0.90
2015,12,11,17,19,1.10
2015,12,11,17,20,1.50
2015,12,11,17,21,1.70
2015,12,11,17,22,1.50
2015,12,11,17,23,1.40
2015,12,11,17,24,2.10
2015,12,11,17,25,1.50
2015,12,11,17,26,1.20
2015,12,11,17,27,1.30
2015,12,11,17,28,1.50
2015,12,11,17,29,1.10
2015,12,11,17,30,1.20
2015,12,11,17,31,2.10
2015,12,11,17,32,0.80
2015,12,11,17,33,1.00
2015,12,11,17,34,0.50
2015,12,11,17,35,0.70
2015,12,11,17,36,0.40
2015,12,11,17,37,0.40
2015,12,11,17,38,0.40
2015,12,11,17,39,0.80
2015,12,11,17,40,0.50
2015,12,11,17,41,2.50
2015,12,11,17,42,2.10
2015,12,11,17,43,3.90
2015,12,11,17,44,2.80
2015,12,11,17,45,2.70
2015,12,11,17,46,3.40
2015,12,11,17,47,2.60
2015,12,11,17,48,2.20
2015,12,11,17,49,0.40
2015,12,11,17,50,0.30
2015,12,11,17,51,0.10
2015,12,11,17,52,1.10
2015,12,11,17,53,1.00
2015,12,11,17,54,1.20
2015,12,11,17,55,1.90
2015,12,11,17,56,1.50
2015,12,11,17,57,1.50
2015,12,11,17,58,0.80
2015,12,11,17,59,1.80
2015,12,11,18,00,2.60
2015,12,11,18,01,2.60
2015,12,11,18,02,2.60
2015,12,11,18,03,2.60
2015,12,11,18,04,2.30